Location: Regona
(45.2000°N, 9.8167°E)
Time: 17:57:10
(UTC+00:00)

Cosmos 1933 - Pass Details

Date: 07 June 2020
Orbit: 546 x 564 km, 82.5° (Epoch: 04 July)

Event Time Altitude Azimuth Distance (km) Brightness Sun altitude
Rises 02:25:19 0° 355° (N) 2,743 7.6 -10.0°
Reaches altitude 10° 02:27:32 10° 359° (N) 1,841 6.7 -9.7°
Maximum altitude 02:31:31 56° 79° (ENE) 659 4.0 -9.2°
Drops below altitude 10° 02:35:27 10° 158° (SSE) 1,816 5.7 -8.7°
Sets 02:37:38 0° 163° (SSE) 2,703 6.6 -8.5°
